FENGYUN 1C DEB *

Satellite information

Favourite Embed

Satellite Type and Status

DEBRISIN ORBIT

Key statistics

Satellite FENGYUN 1C DEB * at a glance.

Uptime

9496

Days in orbit

Revolutions

≈ 14.4

Per day

Orbit

SSO

Sun Synchronous Orbit

Inclination

99.3

Latest

Satellite identification and parameters

Extended collection of information and parameters for FENGYUN 1C DEB *.

Object identification

Identified? True

Debris? True

Object name: FENGYUN 1C DEB *

International designator: 1999-025FAB

Object number (NORAD): 47001

Object ID (CCSDS): 47001

Country: PEOPLES REPUBLIC OF CHINA (PRC)

Current information (Y/N): Y

RCS size: SMALL

Orbital parameters

Period: 100.263 minutes

Inclination: 99.3189 deg

SMA: 7149.139 km

Apoapsis: 807.859 km

Periapsis: 734.149 km

RAAN: 165.7518 deg

Eccentricy: 0.0051551

Argument of periapsis: 332.148 deg

Mean anomaly: 27.6946 deg

Mean motion: 14.36223897 rev/day

Mean motion (dot): 0.00005371 rev/day2

B* drag term: 0.0018286 1/REarth

Two-line elements (TLE)

Creation date: May 6, 2025, 3:54 a.m.

Reference frame: TEME

Reference center: EARTH

Epoch: May 5, 2025, 7:38 p.m. UTC

TLE line 0: 0 FENGYUN 1C DEB *

TLE line 1: 1 47001U 99025FAB 25125.81807823 .00005371 00000-0 18286-2 0 9992

TLE line 2: 2 47001 99.3189 165.7518 0051551 332.1480 27.6946 14.36223897707412

Live tracking on map

Real-time ground track for satellite FENGYUN 1C DEB *.

In-orbit conjunctions

A list of the most updated potential collisions computed for object FENGYUN 1C DEB *.

Target Orbit TCA Probability of collision Miss distance Type
CZ-6A DEB LEO 2024-12-11 23:18:53 0.0001447469 669.0 (m) DEBRIS

Associated space launch

Chinese polar orbiting meteorological satellite

FENGYUN 1C DEB * was lifted into orbit during the mission ‘Long March 4B | Feng Yun 1C’, on board a Long March 4B space rocket.

The launch took place on May 10, 1999, 1:33 a.m. from Launch Complex 7.

For more information about the launch, click the button.

Launch to space Long March 4B | Feng Yun 1C
Long March 4B | Feng Yun 1C

Agency: N/A

Status: Launch Successful

Launch date: May 10, 1999, 1:33 a.m. UTC

Rocket: Long March 4B

Launch pad: Launch Complex 7

Location: Taiyuan Satellite Launch Center, People's Republic of China

...

Latest news about this satellite

There are no fresh news available about this satellite. Check back as we update our databases every day.


Newsletter sign-up

Weekly statistics, charts and insights to help you stay on top of the space industry.